User: anonymous   Login
Location: Unspecified
(0.0000°N, 0.0000°E)
Time: 00:23:21
(UTC+00:00)
Language:

Tubsat - Orbit

View from above orbital plane
View from above orbital plane
View from above satellite
View from above satellite

Ground track
Ground track

The orbit data is extracted from the following two-line orbital elements,

1 25757U 99029B   24176.46968394  .00000188  00000-0  58301-4 0  9992
2 25757  98.5863 140.5499 0014958  33.0407 327.1719 14.51917334328352
Epoch (UTC): 24 June 2024 11:16:20
Eccentricity: 0.0014958
inclination: 98.5863°
perigee height: 709 km
apogee height: 730 km
right ascension of ascending node: 140.5499°
argument of perigee: 33.0407°
revolutions per day: 14.51917334
mean anomaly at epoch: 327.1719°
orbit number at epoch: 32835

The dashed part of the orbit path shows where the satellite is in the earth's shadow,  

DLR